sat.trackr.live / text

‹ back to catalog

STARLINK-32245

NORAD 62133 · 2024-222V

PAYLOAD ACTIVE UNKNOWN

§ Identity

Operator
Country
US
Launch date
2024-11-27
Launch site
AFETR
Launch vehicle
Mass (kg)
RCS (m²)

Purposes: comms

External: N2YO · Heavens-Above · Gunter

§ Orbital elements

Epoch: 2026-09-20T23:14:47.427072Z

Period
94.27 min
Inclination
43.0013°
Eccentricity
0.0000027
Mean motion
15.27589236 rev/d
Perigee alt
483.0 km
Apogee alt
483.0 km
Semi-major
6,861.2 km
B*
3.8106e-4
RAAN
113.4098°
Arg perigee
97.9859°
Mean anomaly
262.0995°
Rev number
10,277

§ Raw data

STARLINK-322451 62133U 24222V   26263.96860448  .00010242  00000+0  38106-3 0  99902 62133  43.0013 113.4098 0000027  97.9859 262.0995 15.27589236102778

JSON: /api/v1/satellites/62133 · /tle

For live sub-satellite position, see the globe view (requires WebGL).

§ Visibility from observer

Set your observer location to see the next 7 days of passes ≥ 10°. The values pass through the URL so the page stays shareable.

No JS? Fill the form by hand. The geolocation button needs JavaScript.